Location: Baia Mare
(47.6567°N, 23.5850°E)
Time: 12:57:19
(UTC+02:00)

ISS - Pass Details

Date: 25 January 2019
Orbit: 404 x 407 km, 51.6° (Epoch: 17 January)

Event Time Altitude Azimuth Distance (km) Brightness Sun altitude
Rises 19:26:56 0° 248° (WSW) 2,319 1.3 -22.0°
Reaches altitude 10° 19:29:00 10° 249° (WSW) 1,461 0.0 -22.3°
Enters shadow 19:31:29 48° 257° (WSW) 537 -2.9 -22.8°
